Simultaneous Nadir Overpasses (SNOs) Predictions

Prediction of SNOs between NPP and TERRA Satellite Orbit:

Table of predicted SNOs for the next 14.0 days since TLE Epoch: 1/14/2023
Index Date (NPP) Time (NPP) Lat,Lon (NPP) SZA (NPP ) Date (TERRA) Time (TERRA) Lat,Lon (TERRA) SZA (TERRA ) Distance(km) Time Diff (sec)
1 01/14/2023 21:41:05 -70.43, 30.82 88.35 01/14/2023 21:42:07 -70.43, 30.85 88.36 1.20 62
2 01/14/2023 22:31:49 70.32,-161.69 91.53 01/14/2023 22:31:31 70.32,-161.65 91.53 1.44 18
3 01/14/2023 23:22:17 -69.49, 6.88 89.35 01/14/2023 23:21:09 -69.52, 4.90 89.24 77.20 68
4 01/17/2023 10:35:03 -70.46,-162.72 88.78 01/17/2023 10:36:09 -70.46,-162.64 88.80 2.94 66
5 01/17/2023 11:25:47 70.35, 4.77 91.10 01/17/2023 11:25:33 70.34, 4.85 91.08 3.19 14
6 01/17/2023 12:16:18 -69.68, 173.12 89.62 01/17/2023 12:15:08 -69.72, 171.63 89.52 57.62 70
7 01/19/2023 23:29:00 -70.46, 3.82 89.31 01/19/2023 23:30:11 -70.45, 3.82 89.32 0.50 71
8 01/20/2023 00:19:44 70.35, 171.30 90.58 01/20/2023 00:19:35 70.33, 171.31 90.56 1.75 9
9 01/20/2023 01:10:18 -69.83, -20.58 89.98 01/20/2023 01:09:07 -69.87, -21.69 89.89 42.50 71
10 01/22/2023 12:22:59 -70.56, 170.17 89.75 01/22/2023 12:24:11 -70.52, 170.39 89.81 9.45 72
11 01/22/2023 13:13:41 70.35, -22.18 90.02 01/22/2023 13:13:36 70.34, -22.21 90.01 1.65 5
12 01/22/2023 14:04:16 -69.93, 145.78 90.43 01/22/2023 14:03:05 -69.99, 144.96 90.33 32.01 71
13 01/25/2023 01:16:57 -70.67, -23.49 90.22 01/25/2023 01:18:09 -70.60, -23.00 90.33 19.64 72
14 01/25/2023 02:07:37 70.36, 144.32 89.44 01/25/2023 02:07:35 70.36, 144.31 89.44 0.47 2
15 01/25/2023 02:58:16 -70.10, -47.96 90.85 01/25/2023 02:57:03 -70.13, -48.37 90.79 16.06 73
16 01/27/2023 14:10:56 -70.80, 142.83 90.73 01/27/2023 14:12:07 -70.71, 143.63 90.86 31.14 71
17 01/27/2023 15:01:34 70.38, -49.20 88.83 01/27/2023 15:01:34 70.41, -49.15 88.85 3.18 0
18 01/27/2023 15:52:14 -70.17, 118.45 91.40 01/27/2023 15:51:02 -70.18, 118.18 91.37 10.39 72



Historial Predications of SNOs between NPP and TERRA
